TANDEM-X

Last updated on Wed Sep 17 2025 00:02:30 GMT+0000 (Coordinated Universal Time)

1 36605U 10030A 25258.78455476 .00001947 00000+0 95875-4 0 9990 2 36605 97.4473 265.4338 0001865 97.8637 262.2809 15.19148989844984
UTC large
Height (km)
Speed (km/s)
/
Latitude / Longitude
Inclination (degrees)
Orbital Period (minutes)
Azimuth
Elevation
Range (km)
Doppler Factor

Next 0 passes for location: London (51.5072 / 0.1276)

Sorry there are no passes over London.